Terminal Aerodrome Forecast
Issued by NWS

Home | Current Version | Previous Version | Text Only | Print | Product List | Glossary On
Versions: 1 2 3 4 5 6 7 8 9 10 11 12 13 14 15 16 17 18 19 20 21
000
FTPA31 PHFO 212300
TAFJRF
TAF
PHJR 212324Z 2200/2224 12010KT P6SM SCT035 BKN045
     FM220400 VRB05KT P6SM SCT045
     FM222000 11011KT P6SM SCT030 SCT045=

USA.gov is the U.S. government's official web portal to all federal, state and local government web resources and services.